When you browse on this site, cookies collect data to enhance your experience and personalize the content and advertising you see.
Visit our Privacy Policy to learn more. By continuing to use the site, you agree to this use of cookies and data.
  • In Schweiz
  • Länderverzeichnis
  • Für 7 Tage
  • Wassertemperatur
  • Wetterkarte
  • Widgets
  • user-avatar
    Anmelden

    Stündliche Wetter Hanoi

    Heute, 29 Mai, Freitag

    Zeit Temperatur Niederschläge Wind Luftdruck Luftfeuchtigkeit
    00:00 +27°C° 1.1 mm 1 m/S 756 mmHg 82%
    01:00 +27°C° 0 mm 1 m/S 755 mmHg 86%
    02:00 +27°C° 0.4 mm 1 m/S 755 mmHg 87%
    03:00 +27°C° 0.4 mm 1 m/S 755 mmHg 87%
    04:00 +26°C° 0.4 mm 1 m/S 754 mmHg 88%
    05:00 +27°C° 0 mm 1 m/S 755 mmHg 86%
    06:00 +27°C° 0 mm 1 m/S 755 mmHg 84%
    07:00 +28°C° 0 mm 2 m/S 756 mmHg 88%
    08:00 +29°C° 0.1 mm 2 m/S 755 mmHg 83%
    09:00 +31°C° 0.1 mm 2 m/S 755 mmHg 78%
    10:00 +32°C° 0.1 mm 2 m/S 755 mmHg 73%
    11:00 +32°C° 0 mm 2 m/S 754 mmHg 71%
    12:00 +34°C° 0 mm 2 m/S 754 mmHg 69%
    13:00 +35°C° 0 mm 3 m/S 753 mmHg 65%
    14:00 +35°C° 0.1 mm 3 m/S 753 mmHg 64%
    15:00 +35°C° 0.1 mm 3 m/S 752 mmHg 63%
    16:00 +36°C° 0.1 mm 3 m/S 751 mmHg 62%
    17:00 +34°C° 0 mm 3 m/S 752 mmHg 68%
    18:00 +33°C° 0 mm 3 m/S 752 mmHg 73%
    19:00 +32°C° 0 mm 4 m/S 753 mmHg 75%
    20:00 +30°C° 0 mm 3 m/S 753 mmHg 78%
    21:00 +30°C° 0 mm 3 m/S 754 mmHg 80%
    22:00 +29°C° 0 mm 3 m/S 754 mmHg 83%
    23:00 +29°C° 0 mm 2 m/S 754 mmHg 85%

    Morgen, 30 Mai, Samstag

    Zeit Temperatur Niederschläge Wind Luftdruck Luftfeuchtigkeit
    00:00 +28°C° 0 mm 2 m/S 754 mmHg 87%
    01:00 +28°C° 0 mm 2 m/S 754 mmHg 88%
    02:00 +28°C° 0 mm 1 m/S 754 mmHg 90%
    03:00 +28°C° 0 mm 1 m/S 754 mmHg 91%
    04:00 +28°C° 0 mm 1 m/S 753 mmHg 92%
    05:00 +28°C° 0 mm 1 m/S 754 mmHg 90%
    06:00 +29°C° 0 mm 1 m/S 754 mmHg 87%
    07:00 +29°C° 0 mm 1 m/S 755 mmHg 85%
    08:00 +31°C° 0 mm 1 m/S 755 mmHg 79%
    09:00 +32°C° 0 mm 1 m/S 755 mmHg 73%
    10:00 +33°C° 0 mm 1 m/S 755 mmHg 68%
    11:00 +35°C° 0 mm 1 m/S 754 mmHg 63%
    12:00 +36°C° 0 mm 1 m/S 754 mmHg 57%
    13:00 +37°C° 0 mm 1 m/S 753 mmHg 52%
    14:00 +39°C° 0 mm 1 m/S 753 mmHg 50%
    15:00 +39°C° 0 mm 2 m/S 752 mmHg 47%
    16:00 +40°C° 0 mm 2 m/S 752 mmHg 45%
    17:00 +37°C° 0.2 mm 3 m/S 752 mmHg 53%
    18:00 +35°C° 0.2 mm 4 m/S 752 mmHg 61%
    19:00 +33°C° 0.2 mm 4 m/S 753 mmHg 69%
    20:00 +32°C° 0.1 mm 4 m/S 753 mmHg 71%
    21:00 +31°C° 0.1 mm 3 m/S 754 mmHg 73%
    22:00 +30°C° 0.1 mm 2 m/S 754 mmHg 75%
    23:00 +30°C° 0 mm 2 m/S 754 mmHg 76%

    übermorgen, 31 Mai, Sonntag

    Zeit Temperatur Niederschläge Wind Luftdruck Luftfeuchtigkeit
    00:00 +30°C° 0 mm 2 m/S 754 mmHg 78%
    01:00 +30°C° 0 mm 1 m/S 754 mmHg 79%
    02:00 +29°C° 0 mm 1 m/S 754 mmHg 81%
    03:00 +29°C° 0 mm 1 m/S 754 mmHg 82%
    04:00 +29°C° 0 mm 1 m/S 754 mmHg 84%
    05:00 +30°C° 0 mm 1 m/S 754 mmHg 82%
    06:00 +30°C° 0 mm 1 m/S 755 mmHg 80%
    07:00 +31°C° 0 mm 1 m/S 755 mmHg 77%
    08:00 +32°C° 0 mm 1 m/S 755 mmHg 70%
    09:00 +34°C° 0 mm 1 m/S 755 mmHg 63%
    10:00 +35°C° 0 mm 1 m/S 755 mmHg 56%
    11:00 +37°C° 0 mm 1 m/S 754 mmHg 52%
    12:00 +39°C° 0 mm 1 m/S 754 mmHg 48%
    13:00 +40°C° 0 mm 1 m/S 753 mmHg 43%
    14:00 +40°C° 0 mm 1 m/S 752 mmHg 42%
    15:00 +40°C° 0 mm 2 m/S 752 mmHg 41%
    16:00 +40°C° 0 mm 2 m/S 751 mmHg 40%
    17:00 +38°C° 0 mm 3 m/S 751 mmHg 48%
    18:00 +36°C° 0 mm 4 m/S 751 mmHg 57%
    19:00 +34°C° 0 mm 5 m/S 752 mmHg 65%
    20:00 +34°C° 0 mm 4 m/S 752 mmHg 67%
    21:00 +33°C° 0 mm 4 m/S 753 mmHg 70%
    22:00 +31°C° 0 mm 3 m/S 753 mmHg 72%
    23:00 +31°C° 0 mm 3 m/S 753 mmHg 74%

    1 Juni, Montag

    Zeit Temperatur Niederschläge Wind Luftdruck Luftfeuchtigkeit
    00:00 +31°C° 0 mm 3 m/S 753 mmHg 76%
    01:00 +30°C° 0 mm 2 m/S 753 mmHg 78%
    02:00 +30°C° 0.1 mm 2 m/S 753 mmHg 78%
    03:00 +30°C° 0.1 mm 2 m/S 753 mmHg 78%
    04:00 +30°C° 0.1 mm 2 m/S 753 mmHg 78%
    05:00 +30°C° 0 mm 1 m/S 753 mmHg 76%
    06:00 +31°C° 0 mm 1 m/S 753 mmHg 74%
    07:00 +31°C° 0 mm 1 m/S 754 mmHg 71%
    08:00 +33°C° 0 mm 1 m/S 754 mmHg 66%
    09:00 +34°C° 0 mm 1 m/S 754 mmHg 61%
    10:00 +36°C° 0 mm 1 m/S 754 mmHg 55%
    11:00 +37°C° 0 mm 1 m/S 753 mmHg 51%
    12:00 +39°C° 0 mm 2 m/S 753 mmHg 46%
    13:00 +40°C° 0 mm 2 m/S 752 mmHg 41%
    14:00 +41°C° 0 mm 2 m/S 751 mmHg 40%
    15:00 +42°C° 0 mm 3 m/S 751 mmHg 39%
    16:00 +42°C° 0 mm 3 m/S 750 mmHg 39%
    17:00 +40°C° 0 mm 4 m/S 750 mmHg 47%
    18:00 +36°C° 0 mm 4 m/S 751 mmHg 56%
    19:00 +34°C° 0 mm 5 m/S 751 mmHg 64%
    20:00 +34°C° 0.1 mm 4 m/S 752 mmHg 66%
    21:00 +33°C° 0.1 mm 3 m/S 752 mmHg 69%
    22:00 +31°C° 0.1 mm 3 m/S 753 mmHg 71%
    23:00 +31°C° 0 mm 2 m/S 752 mmHg 74%

    2 Juni, Dienstag

    Zeit Temperatur Niederschläge Wind Luftdruck Luftfeuchtigkeit
    00:00 +31°C° 0 mm 2 m/S 752 mmHg 77%
    01:00 +30°C° 0 mm 2 m/S 752 mmHg 79%
    02:00 +30°C° 0.1 mm 2 m/S 751 mmHg 79%
    03:00 +30°C° 0.1 mm 2 m/S 751 mmHg 79%
    04:00 +29°C° 0.1 mm 2 m/S 751 mmHg 78%
    05:00 +30°C° 0.1 mm 2 m/S 751 mmHg 76%
    06:00 +30°C° 0.1 mm 2 m/S 752 mmHg 73%
    07:00 +30°C° 0.1 mm 2 m/S 752 mmHg 71%
    08:00 +32°C° 0 mm 2 m/S 752 mmHg 64%
    09:00 +35°C° 0 mm 2 m/S 752 mmHg 57%
    10:00 +37°C° 0 mm 2 m/S 752 mmHg 51%
    11:00 +38°C° 0 mm 2 m/S 751 mmHg 47%
    12:00 +39°C° 0 mm 3 m/S 751 mmHg 44%
    13:00 +40°C° 0 mm 3 m/S 750 mmHg 40%
    14:00 +41°C° 0 mm 4 m/S 749 mmHg 41%
    15:00 +41°C° 0 mm 4 m/S 749 mmHg 41%
    16:00 +41°C° 0 mm 5 m/S 748 mmHg 42%
    17:00 +39°C° 0 mm 5 m/S 749 mmHg 49%
    18:00 +36°C° 0 mm 5 m/S 749 mmHg 57%
    19:00 +34°C° 0 mm 5 m/S 749 mmHg 64%
    20:00 +34°C° 0 mm 4 m/S 750 mmHg 66%
    21:00 +33°C° 0 mm 4 m/S 751 mmHg 68%
    22:00 +33°C° 0 mm 3 m/S 751 mmHg 70%
    23:00 +31°C° 0.1 mm 3 m/S 751 mmHg 71%

    3 Juni, Mittwoch

    Zeit Temperatur Niederschläge Wind Luftdruck Luftfeuchtigkeit
    00:00 +31°C° 0.1 mm 3 m/S 751 mmHg 71%
    01:00 +30°C° 0.1 mm 3 m/S 750 mmHg 72%
    02:00 +30°C° 0 mm 2 m/S 750 mmHg 74%
    03:00 +29°C° 0 mm 2 m/S 750 mmHg 76%
    04:00 +29°C° 0 mm 2 m/S 750 mmHg 78%
    05:00 +30°C° 0 mm 1 m/S 750 mmHg 76%
    06:00 +30°C° 0 mm 1 m/S 750 mmHg 74%
    07:00 +31°C° 0 mm 1 m/S 751 mmHg 72%
    08:00 +33°C° 0 mm 1 m/S 751 mmHg 66%
    09:00 +35°C° 0 mm 1 m/S 751 mmHg 59%
    10:00 +36°C° 0 mm 1 m/S 751 mmHg 53%
    11:00 +39°C° 0 mm 1 m/S 750 mmHg 49%
    12:00 +40°C° 0 mm 2 m/S 750 mmHg 44%
    13:00 +41°C° 0 mm 2 m/S 749 mmHg 40%
    14:00 +41°C° 0 mm 2 m/S 748 mmHg 40%
    15:00 +42°C° 0 mm 3 m/S 748 mmHg 40%
    16:00 +42°C° 0 mm 4 m/S 747 mmHg 39%
    17:00 +40°C° 0 mm 4 m/S 748 mmHg 47%
    18:00 +37°C° 0 mm 5 m/S 748 mmHg 54%
    19:00 +35°C° 0 mm 5 m/S 748 mmHg 61%
    20:00 +34°C° 0 mm 5 m/S 749 mmHg 64%
    21:00 +34°C° 0 mm 4 m/S 749 mmHg 67%
    22:00 +33°C° 0 mm 4 m/S 750 mmHg 70%
    23:00 +33°C° 0 mm 3 m/S 750 mmHg 72%
    Mehr zeigen